Location: Beauc�
(48.3389°N, 1.1580°W)
Time: 08:43:10
(UTC+00:00)

Daily predictions for brighter satellites

Satellite Brightness Start Highest point End
(mag) Time Altitude Azimuth Time Altitude Azimuth Time Altitude Azimuth
Meteor 1-31 Rocket 3.8 16:41:31 10° S 16:45:14 51° W 16:48:59 10° NNW
NOSS 2-2 (C) 4.4 16:44:01 10° NW 16:49:07 87° NE 16:56:21 10° SE
Cosmos 1092 Rocket 4.0 16:46:13 10° N 16:52:35 72° ENE 16:58:54 10° SSE
Cosmos 1898 Rocket 4.1 16:47:36 10° NNW 16:52:48 62° WSW 16:57:54 10° S
CZ-4B R/B 4.1 16:50:19 10° ESE 16:54:31 24° ENE 16:58:40 10° N
Meteor 2-21 4.5 16:50:08 10° N 16:56:09 59° ENE 17:02:06 10° SSE
CZ-2D R/B 4.3 16:53:27 10° ESE 16:56:31 23° ENE 16:59:36 10° NNE
ATLAS CENTAUR R/B 3.1 16:46:29 10° SW 16:57:15 84° SE 17:01:31 10° NE
USA 267 3.7 16:51:01 10° ENE 16:57:19 48° SE 17:03:34 10° SSW
Cosmos 1939 Rocket 3.0 16:55:05 10° SSE 16:59:04 52° ENE 17:03:00 10° N
USA 306 3.4 16:55:38 10° WNW 16:59:43 43° NNE 17:03:46 10° E
Cosmos 1633 Rocket 3.8 16:57:17 10° N 17:01:13 31° ENE 17:05:09 10° SE
Cosmos 1151 Rocket 3.9 16:57:44 10° SSE 17:01:30 30° E 17:05:19 10° NNE
COSMO-SKYMED 1 4.3 16:59:19 10° ENE 17:01:37 14° E 17:03:54 10° ESE
Cosmos 1666 3.3 16:59:39 10° N 17:03:02 32° ENE 17:06:23 10° SE
Cosmos 1782 2.9 16:59:35 10° S 17:03:29 54° E 17:07:23 10° NNE
Cosmos 2360 Rocket 3.5 17:00:24 10° N 17:04:21 19° NE 17:08:17 10° E
ISS -2.1 17:02:09 10° WNW 17:05:19 36° SW 17:08:28 10° SE
Cosmos 1763 Rocket 4.1 17:03:11 10° SW 17:08:09 54° WNW 17:13:13 10° NNE
SeaSat 1 3.8 17:04:32 10° NNE 17:08:58 34° NW 17:13:22 10° WSW
SL-08 R/B 3.5 17:04:46 10° NNE 17:09:28 76° WNW 17:14:05 10° SSW
Cosmos 1818 3.6 17:05:08 10° NNW 17:10:34 59° NE 17:15:57 10° SE
NOAA 12 4.2 17:06:21 10° SSE 17:11:41 84° WSW 17:17:02 10° NNW
CZ-2C R/B 3.9 17:13:37 10° S 17:14:53 11° SSE 17:16:08 10° SSE
Meteor 2-14 Rocket 4.4 17:09:20 10° N 17:15:29 82° E 17:21:33 10° SSE
ATLAS 5 CENTAUR R/B 3.1 17:08:27 10° NW 17:17:02 40° NNE 17:19:38 15° E
Cosmos 1627 Rocket 4.5 17:10:52 10° N 17:17:03 90° W 17:23:11 10° S
Cosmos 2279 Rocket 4.2 17:11:39 10° SSE 17:17:32 48° E 17:23:27 10° NNE
Cosmos 841 Rocket 3.5 17:13:11 10° SSW 17:18:21 88° ESE 17:23:32 10° NNE
Meteor PRIRODA 4.4 17:15:17 10° S 17:18:51 56° W 17:22:26 10° NNW
ERBS 4.1 17:17:05 10° NW 17:19:20 17° N 17:20:46 14° NNE
USA 307 3.3 17:16:13 10° WNW 17:20:22 47° NNE 17:23:32 16° E
CZ-4C R/B 3.1 17:14:19 10° NW 17:21:31 88° SW 17:29:58 10° SE
Lacrosse 5 rocket 1.1 17:19:49 10° NW 17:23:42 79° NNE 17:27:50 10° ESE
Cosmos 1697 Rocket 4.4 17:19:31 10° NW 17:24:38 37° WSW 17:29:43 10° S
Cosmos 372 Rocket 4.4 17:19:35 10° NNW 17:24:49 70° WSW 17:30:02 10° SSE
ATLAS 2AS CENTAUR R/B 4.1 17:20:39 10° NW 17:26:40 24° N 17:31:18 14° NE
Cosmos 2322 Rocket 2.8 17:22:28 10° NNW 17:27:40 35° NE 17:32:51 10° ESE
COSMOS 2428 4.5 17:25:15 10° N 17:27:47 13° NNE 17:28:43 12° NE
Cosmos 2208 Rocket 4.4 17:22:41 10° S 17:27:51 48° ESE 17:32:51 11° NNE
Cosmos 2150 Rocket 4.2 17:24:47 10° NNW 17:29:46 45° ENE 17:34:46 10° SE
AQUARIUS 4.1 17:25:53 10° SSE 17:30:22 85° ENE 17:34:54 10° NNW
Cosmos 1666 Rocket 3.5 17:26:28 10° N 17:30:54 74° E 17:35:17 10° SSE
Cosmos 1980 Rocket 2.8 17:25:28 10° NNW 17:31:04 62° WSW 17:36:35 10° S
Cosmos 1328 Rocket 3.9 17:27:18 10° SSE 17:31:29 43° E 17:35:42 10° NNE
USA 234 3.2 17:25:18 10° ESE 17:31:50 78° NNE 17:38:23 10° NW
Cosmos 1470 Rocket 4.0 17:30:13 10° N 17:34:28 41° ENE 17:38:42 10° SE
Cosmos 1544 3.9 17:31:23 10° NNE 17:34:33 28° ENE 17:37:42 10° SE
CORIOLIS 4.2 17:30:29 10° SSE 17:35:54 87° WSW 17:41:23 10° NNW
Cosmos 1125 Rocket 3.7 17:30:56 10° NNW 17:36:00 47° ENE 17:41:05 10° SE
X-37B 2.6 17:35:06 10° SSW 17:36:53 15° SSE 17:37:49 13° SE
Cosmos 1812 2.6 17:33:26 10° S 17:37:16 78° E 17:41:08 10° NNE
Cosmos 2026 Rocket 4.3 17:31:16 10° NNW 17:37:21 67° W 17:43:20 10° S
PSLV R/B 3.5 17:34:46 10° SSE 17:38:28 73° ENE 17:42:15 10° N
H-2A R/B 1.9 17:34:14 10° SSE 17:39:16 64° ENE 17:44:13 10° N
Cosmos 1634 Rocket 4.2 17:33:35 10° SSW 17:39:55 80° W 17:46:18 10° N
Okean O Rocket 2.1 17:37:02 10° SE 17:41:07 37° ENE 17:45:14 10° N
Meteor 1-11 Rocket 4.1 17:36:10 10° N 17:41:30 41° ENE 17:46:53 10° SE
ATLAS CENTAUR R/B 4.0 17:41:09 10° NNW 17:42:16 11° N 17:43:23 10° N
USA 308 3.0 17:38:56 10° WNW 17:43:08 55° NNE 17:45:21 26° E
Sich 1 4.3 17:42:11 10° NNW 17:46:16 43° W 17:50:22 10° SSW
SL-16 R/B 2.2 17:42:51 10° NNW 17:48:29 59° ENE 17:54:04 10° SE
SKYMED 2 4.0 17:47:47 22° NE 17:50:07 39° E 17:54:11 10° SSE
ARGOS 3.3 17:45:59 10° SE 17:51:12 52° ENE 17:56:25 10° N
Cosmos 2082 Rocket 2.6 17:45:54 10° SW 17:51:33 65° WNW 17:56:57 11° NNE
Meteor 1-5 Rocket 4.4 17:47:36 10° NNW 17:53:37 81° W 17:59:28 10° S
SMAP 4.0 17:50:11 10° S 17:54:41 49° W 17:59:14 10° NNW
deb Chang Zheng 4 3.5 17:52:24 10° SSE 17:56:38 58° ENE 18:00:53 10° N
COSMOS 2455 3.5 17:53:59 10° SW 17:59:51 53° NW 18:04:54 14° NNE
Cosmos 1833 Rocket 4.3 18:00:20 10° WSW 18:05:12 29° NW 18:10:06 10° NNE
USA 305 2.8 18:03:16 10° WNW 18:07:32 76° NNE 18:08:52 42° ESE
Cosmos 2333 Rocket 3.2 18:03:14 10° NNW 18:08:04 27° NE 18:08:04 27° NE
Cosmos 1356 Rocket 3.4 18:05:00 10° N 18:09:11 61° ENE 18:13:24 10° SSE
CZ-2C R/B 2.5 18:06:50 14° NNE 18:11:20 67° ESE 18:16:28 10° S
Cosmos 2219 Rocket 3.4 18:11:15 10° N 18:15:05 24° NNE 18:15:05 24° NNE
Cosmos 44 Rocket 4.3 18:11:51 10° NW 18:16:34 47° WSW 18:21:06 10° SSE
Cosmos 1655 Rocket 3.9 18:10:41 10° N 18:17:08 84° E 18:23:29 10° S
Aureole 3 Rocket 3.8 18:13:25 10° SSE 18:17:56 50° E 18:24:13 10° NNE
Cosmos 1515 Rocket 3.4 18:14:10 10° S 18:18:34 72° E 18:20:26 34° NNE
Cosmos 921 Rocket 3.0 18:16:47 10° SSW 18:20:59 80° WNW 18:22:47 34° NNE
CZ-4 R/B 4.4 18:21:46 10° SSE 18:25:53 86° WSW 18:30:04 10° NNW
CZ-4B R/B 3.6 18:29:21 10° S 18:34:41 61° WSW 18:39:58 10° NNW
Cosmos 371 Rocket 4.1 18:30:37 10° NNW 18:33:50 36° NNE 18:33:50 36° NNE
COSMO-SKYMED 1 2.8 18:36:23 33° N 18:38:16 69° WNW 18:42:34 10° SSW
USA 306 2.9 18:35:34 10° WNW 18:39:49 75° SSW 18:39:52 75° SSW
USA 267 3.4 18:37:47 37° NE 18:40:32 69° NNW 18:47:01 10° WSW
Landsat 5 3.6 18:41:37 60° SSW 18:41:37 60° SSW 18:44:51 10° SSW
Meteor 2-15 Rocket 4.4 18:37:07 10° SSW 18:43:15 82° W 18:49:24 10° N
APEX 4.0 18:40:18 10° SW 18:43:03 42° WSW 18:43:03 42° WSW
Meteor 1-27 Rocket 3.5 18:39:00 10° S 18:44:30 81° E 18:46:30 41° NNE
YAOGAN 1 4.3 18:48:29 22° N 18:48:29 22° N 18:50:05 10° NNW
Cosmos 836 Rocket 4.4 18:42:01 10° SSW 18:47:19 90° WNW 18:48:20 60° NNE
Cosmos 2360 Rocket 2.0 18:43:38 10° NNW 18:49:21 78° ENE 18:50:07 65° ESE
Cosmos 2237 4.3 18:47:05 10° NNW 18:52:48 77° WSW 18:55:53 28° SSE
CZ-2C R/B 3.8 18:51:29 10° SSW 18:53:23 13° S 18:53:23 13° S
USA 307 3.7 18:56:11 10° WNW 18:59:35 50° W 18:59:35 50° W
Lacrosse 5 rocket 3.8 18:59:33 10° W 19:02:27 19° SW 19:04:38 13° SSW
SL-08 RB Rocket 4.4 18:58:05 10° S 19:02:36 52° W 19:07:06 10° NNW
Cosmos 2322 Rocket 3.1 19:06:26 10° NW 19:11:54 48° WSW 19:17:08 11° S
COSMOS 2428 4.2 19:08:09 10° NNW 19:10:45 25° N 19:10:45 25° N
USA 234 4.3 19:10:00 14° SSE 19:15:12 39° SW 19:21:16 10° WNW
NOSS 3-4 (A) 3.9 19:10:05 10° NW 19:16:19 60° NNE 19:16:19 60° NNE
NOSS 3-4 (C) 3.9 19:10:12 10° NW 19:16:24 59° NNE 19:16:24 59° NNE
Okean O Rocket 3.7 19:13:46 10° SSW 19:17:32 27° W 19:21:21 10° NW
ATLAS 2AS CENTAUR R/B 3.6 19:12:58 10° NW 19:18:44 36° N 19:18:44 36° N
Cosmos 1867 3.9 19:14:24 10° SW 19:19:09 64° W 19:19:09 64° W
GEOS 3 Rocket 4.3 19:23:02 47° NW 19:23:02 47° NW 19:26:42 10° NW
NOSS 3-3 (A) 4.1 19:21:15 10° SW 19:25:51 61° SW 19:25:51 61° SW
NOSS 3-3 (C) 4.1 19:21:21 10° SW 19:25:56 61° SW 19:25:56 61° SW
ATLAS CENTAUR R/B 4.2 19:23:58 10° WNW 19:27:07 20° NW 19:27:07 20° NW
SL-16 R/B 4.2 19:27:37 10° NW 19:32:11 26° WSW 19:36:45 10° SSW
Cosmos 2333 Rocket 3.7 19:47:10 10° NNW 19:50:07 31° NW 19:50:07 31° NW
Cosmos 2219 Rocket 4.1 19:54:45 10° NNW 19:56:50 23° NNW 19:56:50 23° NNW
